"startDT [UTC]","vpos","CH4 [ppm]","stdev(CH4) [ppm]","CO2 [ppm]","stdev(CO2) [ppm]","H2O_reported [%]","stdev(H2O_reported)","CavityPressure [torr]","CavityTemp [C]","OutletValve","CH4_dry [ppm]","CO2_dry [ppm]","DasTemp [C]","EtalonTemp [C]","WarmBoxTemp [C]","MPVPosition","T_ECpre [C]","T_EC1 [C]","T_EC2 [C]","p_inlet [hPa]","p_in [hPa]","p_out [hPa]","T_inlet [C]","RH_inlet [%]","dwpt_inlet [C]","T_vent [C]","RH_vent [%]","dwpt_vent [C]","flow_vent [l min-1]","flow_inlet [l min-1]","dwpt_sample [C]","T_room [C]"
2015-11-02 00:00:00,3.0,1.89082,0.03709,399.916,3.284,0.0420,0.0603,139.982,45.000,31442.32020,1.89550,400.317,36.381,45.068,45.000,0.00,0.09,-272.75,-272.80,-7,489,-932,22.0,5.5,-18.3,22.1,5.5,-18.1,5.73,1.96,-9.9,28.3
2015-11-02 00:01:00,3.0,1.87675,0.00046,397.216,0.061,0.0095,0.0016,139.999,45.000,31422.80576,1.87691,397.264,36.376,45.068,45.000,0.00,0.09,-272.75,-272.81,-7,489,-932,21.9,5.2,-18.9,22.1,5.4,-18.4,5.73,1.75,-9.9,28.3
2015-11-02 00:02:00,3.0,1.87655,0.00037,397.324,0.093,0.0092,0.0017,139.999,45.000,31417.73034,1.87672,397.363,36.375,45.068,45.000,0.00,0.09,-272.75,-272.80,-7,489,-932,22.0,4.9,-19.7,22.1,5.0,-19.3,5.73,2.03,-9.9,28.3
2015-11-02 00:03:00,3.0,1.87636,0.00036,397.523,0.041,0.0081,0.0016,139.999,45.000,31414.44271,1.87650,397.561,36.362,45.068,45.000,0.00,0.09,-272.74,-272.80,-7,489,-932,22.0,4.6,-20.3,22.1,4.7,-19.9,5.73,1.69,-9.9,28.3
2015-11-02 00:04:00,3.0,1.87644,0.00041,397.554,0.036,0.0079,0.0020,139.995,45.000,31413.37629,1.87660,397.592,36.364,45.068,45.000,0.00,0.09,-272.75,-272.81,-7,490,-932,22.0,4.5,-20.6,22.1,4.6,-20.2,5.73,2.01,-9.9,28.3
2015-11-02 00:05:00,3.0,1.87653,0.00036,397.559,0.022,0.0055,0.0020,139.999,45.000,31413.07208,1.87661,397.584,36.373,45.068,45.000,0.00,0.09,-272.76,-272.81,-7,490,-932,22.0,4.5,-20.7,22.2,4.5,-20.4,5.73,1.79,-9.9,28.3
2015-11-02 00:06:00,3.0,1.87647,0.00038,397.570,0.035,0.0051,0.0022,139.999,45.000,31413.04261,1.87657,397.594,36.375,45.068,45.000,0.00,0.09,-272.74,-272.80,-6,491,-932,22.0,4.5,-20.5,22.2,4.6,-20.3,5.73,1.85,-9.9,28.4
2015-11-02 00:07:00,3.0,1.87632,0.00043,397.559,0.027,0.0046,0.0024,140.002,45.000,31415.74079,1.87642,397.581,36.380,45.068,45.000,0.00,0.09,-272.75,-272.80,-8,491,-932,22.1,4.6,-20.3,22.2,4.6,-20.1,5.73,1.97,-9.9,28.3
2015-11-02 00:08:00,3.0,1.87659,0.00029,397.573,0.037,0.0032,0.0026,140.000,45.000,31415.38636,1.87662,397.587,36.388,45.068,45.000,0.00,0.09,-272.75,-272.81,-6,491,-932,22.0,4.6,-20.3,22.2,4.7,-20.0,5.73,1.70,-9.9,28.3
2015-11-02 00:09:00,3.0,1.87646,0.00035,397.562,0.027,0.0026,0.0018,140.002,45.000,31416.94087,1.87652,397.575,36.389,45.068,45.000,0.00,0.09,-272.75,-272.80,-8,491,-932,22.1,4.7,-20.1,22.2,4.7,-19.9,5.73,2.05,-9.9,28.4
2015-11-02 00:10:00,3.0,1.87607,0.00028,397.562,0.024,0.0033,0.0018,139.998,45.000,31418.29976,1.87615,397.579,36.403,45.068,45.000,0.00,0.09,-272.74,-272.80,-6,492,-932,22.1,4.7,-20.0,22.3,4.8,-19.7,5.73,1.70,-9.9,28.4
2015-11-02 00:11:00,3.0,1.87631,0.00035,397.565,0.025,0.0024,0.0020,140.002,45.000,31420.33837,1.87633,397.576,36.418,45.068,45.000,0.00,0.09,-272.75,-272.81,-8,492,-932,22.2,4.7,-19.9,22.3,4.8,-19.6,5.73,1.97,-9.9,28.4
2015-11-02 00:12:00,3.0,1.87633,0.00026,397.580,0.030,0.0019,0.0021,139.997,45.000,31420.19950,1.87636,397.589,36.413,45.068,45.000,0.00,0.09,-272.75,-272.81,-6,492,-932,22.2,4.8,-19.6,22.3,4.9,-19.4,5.73,1.84,-9.9,28.4
2015-11-02 00:13:00,3.0,1.87637,0.00035,397.557,0.028,0.0018,0.0019,139.999,45.000,31422.06407,1.87641,397.566,36.436,45.068,45.000,0.00,0.09,-272.74,-272.81,-8,493,-932,22.3,5.0,-19.3,22.4,5.0,-19.1,5.73,1.81,-9.9,28.4
2015-11-02 00:14:00,3.0,1.87617,0.00031,397.550,0.028,0.0017,0.0017,139.998,45.000,31423.95960,1.87620,397.559,36.438,45.068,45.000,0.00,0.09,-272.75,-272.81,-6,493,-932,22.3,5.1,-18.9,22.4,5.1,-18.9,5.73,2.00,-9.9,28.4
2015-11-02 00:15:00,3.0,1.87634,0.00033,397.578,0.033,0.0013,0.0020,139.999,45.000,31425.24696,1.87637,397.584,36.438,45.068,45.000,0.00,0.09,-272.75,-272.81,-8,493,-932,22.3,5.2,-18.7,22.4,5.2,-18.5,5.73,1.69,-9.9,28.5
2015-11-02 00:16:00,3.0,1.87641,0.00036,397.579,0.032,0.0015,0.0014,140.001,45.000,31425.84282,1.87644,397.585,36.432,45.068,45.000,0.00,0.09,-272.75,-272.80,-6,493,-932,22.4,5.3,-18.4,22.5,5.3,-18.3,5.73,2.04,-9.9,28.5
2015-11-02 00:17:00,3.0,1.87634,0.00047,397.580,0.036,0.0009,0.0014,140.000,45.000,31427.96281,1.87636,397.585,36.437,45.068,45.000,0.00,0.09,-272.74,-272.80,-8,494,-932,22.4,5.4,-18.2,22.5,5.4,-18.1,5.73,1.74,-9.9,28.5
2015-11-02 00:18:00,3.0,1.87639,0.00036,397.591,0.033,0.0008,0.0017,140.000,45.000,31427.63161,1.87640,397.594,36.426,45.068,45.000,0.00,0.09,-272.76,-272.81,-7,494,-932,22.5,5.3,-18.3,22.5,5.4,-18.0,5.73,1.90,-9.9,28.5
2015-11-02 00:19:00,3.0,1.87636,0.00034,397.591,0.025,0.0006,0.0019,140.001,45.000,31430.82058,1.87638,397.594,36.424,45.068,45.000,0.00,0.09,-272.75,-272.80,-8,494,-932,22.5,5.1,-18.8,22.6,5.2,-18.4,5.73,1.92,-9.9,28.6
2015-11-02 00:20:00,0.0,1.97410,0.03749,406.898,3.804,0.1391,0.0613,140.015,45.000,31629.64805,1.97308,407.388,36.399,45.068,45.000,0.00,0.09,-272.74,-272.80,-9,524,-931,22.5,5.0,-19.0,22.6,5.1,-18.8,5.73,1.73,-9.9,28.5
2015-11-02 00:21:00,0.0,1.99047,0.00118,408.520,0.123,0.1719,0.0013,139.998,45.000,31652.73494,1.99388,409.369,36.375,45.069,45.000,0.00,0.09,-272.75,-272.80,-10,525,-931,22.6,4.9,-19.3,22.6,5.0,-18.9,5.73,2.00,-9.9,28.6
2015-11-02 00:22:00,0.0,1.99004,0.00064,408.454,0.080,0.1688,0.0019,140.003,45.000,31662.32508,1.99332,409.284,36.375,45.069,45.000,0.00,0.09,-272.75,-272.81,-8,525,-931,22.6,4.8,-19.6,22.6,4.9,-19.2,5.73,1.78,-9.9,28.6
2015-11-02 00:23:00,0.0,1.99004,0.00045,408.502,0.053,0.1650,0.0018,140.000,45.000,31667.94770,1.99330,409.316,36.375,45.069,45.001,0.00,0.09,-272.74,-272.80,-10,525,-931,22.6,4.7,-19.8,22.7,4.8,-19.4,5.73,2.00,-9.9,28.6
2015-11-02 00:24:00,0.0,1.98956,0.00047,408.470,0.055,0.1636,0.0016,140.000,45.000,31671.99873,1.99280,409.277,36.376,45.069,45.000,0.00,0.09,-272.74,-272.81,-8,526,-931,22.6,4.6,-19.9,22.6,4.7,-19.6,5.73,1.78,-9.9,28.6
2015-11-02 00:25:00,0.0,1.98878,0.00036,408.497,0.047,0.1625,0.0022,140.000,45.000,31676.79923,1.99201,409.299,36.375,45.069,45.000,0.00,0.09,-272.75,-272.81,-9,526,-931,22.6,4.6,-19.9,22.7,4.7,-19.7,5.73,2.00,-9.9,28.6
2015-11-02 00:26:00,0.0,1.98875,0.00044,408.458,0.040,0.1621,0.0012,140.003,45.000,31682.19239,1.99191,409.258,36.375,45.069,45.000,0.00,0.09,-272.74,-272.81,-9,526,-931,22.6,4.5,-20.0,22.7,4.7,-19.7,5.73,1.77,-9.9,28.6
2015-11-02 00:27:00,0.0,1.98800,0.00037,408.377,0.046,0.1623,0.0023,139.999,45.000,31682.63305,1.99122,409.179,36.375,45.069,45.000,0.00,0.09,-272.75,-272.80,-9,526,-931,22.7,4.6,-20.0,22.7,4.6,-19.7,5.73,2.00,-9.9,28.6
2015-11-02 00:28:00,0.0,1.98739,0.00049,408.300,0.035,0.1627,0.0015,139.999,45.000,31686.60657,1.99058,409.101,36.378,45.068,45.000,0.00,0.09,-272.75,-272.81,-10,526,-931,22.6,4.6,-20.0,22.7,4.6,-19.7,5.73,1.77,-9.9,28.6
2015-11-02 00:29:00,0.0,1.98720,0.00032,408.327,0.032,0.1631,0.0018,139.998,45.000,31686.45686,1.99040,409.130,36.377,45.068,45.000,0.00,0.09,-272.75,-272.80,-8,526,-931,22.7,4.6,-19.9,22.7,4.7,-19.7,5.73,2.01,-9.9,28.6
2015-11-02 00:30:00,0.0,1.98744,0.00059,408.295,0.035,0.1642,0.0017,140.000,45.000,31687.55177,1.99071,409.104,36.384,45.068,45.000,0.00,0.09,-272.74,-272.80,-10,527,-931,22.7,4.6,-19.9,22.7,4.7,-19.6,5.73,1.77,-9.9,28.6
2015-11-02 00:31:00,0.0,1.98663,0.00045,408.328,0.047,0.1652,0.0026,139.999,45.000,31689.17354,1.98987,409.144,36.380,45.068,45.000,0.00,0.09,-272.75,-272.80,-8,527,-931,22.7,4.6,-19.8,22.7,4.7,-19.6,5.73,2.01,-9.9,28.6
2015-11-02 00:32:00,0.0,1.98629,0.00044,408.224,0.036,0.1665,0.0013,139.998,45.000,31691.85410,1.98958,409.044,36.376,45.068,45.000,0.00,0.09,-272.74,-272.81,-10,527,-931,22.6,4.7,-19.7,22.7,4.7,-19.5,5.73,1.76,-9.9,28.6
2015-11-02 00:33:00,0.0,1.98633,0.00046,408.287,0.038,0.1676,0.0017,139.999,45.000,31693.31231,1.98959,409.112,36.375,45.068,45.000,0.00,0.09,-272.75,-272.80,-8,527,-931,22.7,4.7,-19.7,22.7,4.7,-19.5,5.73,2.02,-9.9,28.7
2015-11-02 00:34:00,0.0,1.98687,0.00064,408.364,0.098,0.1689,0.0015,140.001,45.000,31694.67847,1.99012,409.191,36.375,45.068,45.000,0.00,0.09,-272.74,-272.81,-9,527,-931,22.6,4.7,-19.6,22.8,4.8,-19.4,5.73,1.75,-9.9,28.7
2015-11-02 00:35:00,0.0,1.98812,0.00057,408.608,0.064,0.1685,0.0016,139.999,45.000,31693.63914,1.99143,409.440,36.374,45.068,45.000,0.00,0.09,-272.75,-272.80,-9,527,-931,22.6,4.7,-19.6,22.7,4.8,-19.4,5.73,2.03,-9.9,28.7
2015-11-02 00:36:00,0.0,1.99050,0.00255,408.700,0.176,0.1691,0.0019,139.999,45.000,31694.48223,1.99363,409.530,36.383,45.068,45.000,0.00,0.09,-272.74,-272.80,-9,527,-931,22.6,4.7,-19.6,22.7,4.8,-19.4,5.73,1.74,-9.9,28.7
2015-11-02 00:37:00,0.0,1.99250,0.00160,408.974,0.123,0.1695,0.0014,139.999,45.000,31696.04323,1.99582,409.804,36.377,45.068,45.000,0.00,0.09,-272.75,-272.80,-10,527,-931,22.6,4.7,-19.6,22.7,4.8,-19.4,5.73,2.04,-9.9,28.6
2015-11-02 00:38:00,0.0,1.99239,0.00247,409.094,0.196,0.1697,0.0016,140.001,45.000,31696.54951,1.99577,409.932,36.375,45.068,45.000,0.00,0.09,-272.74,-272.81,-8,527,-932,22.6,4.8,-19.6,22.7,4.8,-19.3,5.73,1.73,-9.9,28.7
2015-11-02 00:39:00,0.0,1.99664,0.00241,409.379,0.092,0.1705,0.0017,139.999,45.000,31697.36371,1.99977,410.218,36.375,45.068,45.000,0.00,0.09,-272.75,-272.80,-10,527,-931,22.6,4.7,-19.6,22.7,4.8,-19.3,5.73,2.04,-9.9,28.7
2015-11-02 00:40:00,0.0,1.99567,0.00388,409.270,0.133,0.1707,0.0020,139.998,45.000,31697.46223,1.99938,410.120,36.368,45.069,45.000,0.00,0.09,-272.74,-272.80,-8,527,-932,22.6,4.8,-19.6,22.7,4.8,-19.3,5.73,1.73,-9.9,28.7
2015-11-02 00:41:00,0.0,1.99379,0.00145,409.136,0.067,0.1689,0.0020,140.000,45.000,31699.06812,1.99706,409.971,36.364,45.068,45.000,0.00,0.09,-272.75,-272.80,-10,527,-931,22.5,4.7,-19.7,22.7,4.8,-19.4,5.73,2.05,-9.9,28.7
2015-11-02 00:42:00,0.0,1.99469,0.00152,409.016,0.042,0.1667,0.0024,140.000,45.000,31698.98635,1.99777,409.840,36.362,45.068,45.000,0.00,0.09,-272.75,-272.81,-8,527,-932,22.5,4.6,-19.9,22.7,4.7,-19.5,5.73,1.72,-9.9,28.7
2015-11-02 00:43:00,0.0,2.00021,0.00118,408.827,0.104,0.1644,0.0012,140.001,45.000,31698.75255,2.00342,409.642,36.367,45.068,45.000,0.00,0.09,-272.75,-272.80,-9,527,-932,22.5,4.6,-19.9,22.7,4.7,-19.6,5.73,2.06,-9.9,28.7
2015-11-02 00:44:00,0.0,1.99903,0.00363,408.772,0.109,0.1642,0.0016,139.998,45.000,31698.55850,2.00200,409.581,36.363,45.069,45.000,0.00,0.09,-272.74,-272.80,-9,527,-932,22.5,4.6,-20.0,22.6,4.7,-19.7,5.73,1.72,-9.8,28.6
2015-11-02 00:45:00,0.0,2.00591,0.00253,408.793,0.069,0.1637,0.0017,140.001,45.000,31697.81220,2.00946,409.606,36.373,45.069,45.000,0.00,0.09,-272.76,-272.80,-9,527,-932,22.5,4.6,-19.9,22.7,4.7,-19.7,5.73,2.06,-9.9,28.7
2015-11-02 00:46:00,0.0,1.99256,0.00131,408.462,0.042,0.1610,0.0021,140.002,45.000,31700.45994,1.99592,409.258,36.375,45.068,45.000,0.00,0.09,-272.74,-272.81,-10,527,-931,22.5,4.5,-20.2,22.7,4.6,-19.8,5.73,1.71,-9.9,28.7
2015-11-02 00:47:00,0.0,1.99074,0.00110,408.423,0.040,0.1579,0.0015,140.001,45.000,31698.99856,1.99398,409.203,36.375,45.068,45.000,0.00,0.09,-272.75,-272.80,-8,527,-932,22.4,4.5,-20.3,22.6,4.6,-20.0,5.73,2.07,-9.9,28.7
2015-11-02 00:48:00,0.0,1.98755,0.00093,408.311,0.071,0.1584,0.0017,139.999,45.000,31700.07137,1.99073,409.094,36.376,45.068,45.000,0.00,0.09,-272.74,-272.81,-10,527,-931,22.5,4.4,-20.4,22.7,4.5,-20.0,5.73,1.71,-9.9,28.6
2015-11-02 00:49:00,0.0,1.98699,0.00052,408.202,0.045,0.1581,0.0017,139.998,45.000,31699.99454,1.99006,408.981,36.378,45.068,45.000,0.00,0.09,-272.75,-272.80,-8,527,-932,22.5,4.5,-20.4,22.6,4.5,-20.1,5.73,2.07,-9.9,28.7
2015-11-02 00:50:00,0.0,1.98971,0.00145,408.255,0.067,0.1579,0.0016,139.999,45.000,31701.25758,1.99271,409.032,36.375,45.068,45.000,0.00,0.09,-272.73,-272.80,-10,527,-931,22.4,4.5,-20.4,22.6,4.5,-20.1,5.73,1.71,-9.9,28.7
2015-11-02 00:51:00,0.0,1.99109,0.00059,408.334,0.038,0.1575,0.0018,140.001,45.000,31699.12707,1.99417,409.109,36.375,45.068,45.000,0.00,0.09,-272.75,-272.80,-8,527,-932,22.4,4.5,-20.4,22.6,4.5,-20.1,5.73,2.08,-9.9,28.7
2015-11-02 00:52:00,0.0,1.99297,0.00216,408.496,0.158,0.1573,0.0013,140.000,45.000,31700.08598,1.99595,409.266,36.376,45.068,45.000,0.00,0.09,-272.75,-272.81,-9,527,-931,22.4,4.5,-20.4,22.6,4.5,-20.1,5.73,1.71,-9.9,28.7
2015-11-02 00:53:00,0.0,1.99938,0.00268,408.879,0.152,0.1561,0.0017,140.000,45.000,31701.22238,2.00236,409.649,36.376,45.068,45.000,0.00,0.09,-272.75,-272.81,-9,527,-931,22.4,4.4,-20.5,22.6,4.5,-20.2,5.73,2.08,-9.9,28.6
2015-11-02 00:54:00,0.0,1.99805,0.00101,408.631,0.091,0.1565,0.0013,139.999,45.000,31699.44585,2.00115,409.406,36.379,45.068,45.000,0.00,0.09,-272.74,-272.81,-9,527,-932,22.4,4.4,-20.5,22.6,4.5,-20.1,5.73,1.71,-9.9,28.6
2015-11-02 00:55:00,0.0,1.99690,0.00084,408.491,0.039,0.1561,0.0018,139.998,45.000,31697.40501,2.00005,409.261,36.376,45.068,45.000,0.00,0.09,-272.75,-272.81,-9,527,-932,22.3,4.4,-20.6,22.6,4.5,-20.2,5.73,2.08,-9.9,28.6
2015-11-02 00:56:00,0.0,1.99422,0.00114,408.366,0.067,0.1580,0.0016,140.001,45.000,31697.98986,1.99743,409.147,36.376,45.068,45.000,0.00,0.09,-272.74,-272.81,-8,527,-932,22.3,4.5,-20.4,22.6,4.5,-20.2,5.73,1.69,-9.8,28.6
2015-11-02 00:57:00,0.0,1.99155,0.00081,408.284,0.037,0.1596,0.0015,140.002,45.000,31698.36189,1.99477,409.071,36.375,45.068,45.000,0.00,0.09,-272.75,-272.80,-10,527,-931,22.3,4.5,-20.2,22.6,4.6,-20.1,5.73,2.08,-9.9,28.6
2015-11-02 00:58:00,0.0,1.98959,0.00076,408.311,0.038,0.1611,0.0017,140.001,45.000,31698.39388,1.99278,409.104,36.375,45.069,45.000,0.00,0.09,-272.75,-272.80,-8,527,-932,22.3,4.6,-20.2,22.5,4.6,-20.0,5.73,1.70,-9.9,28.6
2015-11-02 00:59:00,0.0,1.98882,0.00070,408.334,0.054,0.1623,0.0015,140.000,45.000,31696.97598,1.99199,409.132,36.375,45.068,45.000,0.00,0.09,-272.76,-272.80,-10,527,-931,22.3,4.6,-20.1,22.5,4.6,-19.9,5.73,2.09,-9.9,28.6
2015-11-02 01:00:00,0.0,1.99060,0.00037,408.455,0.053,0.1639,0.0021,139.999,45.000,31698.81473,1.99379,409.264,36.375,45.068,45.000,0.00,0.09,-272.75,-272.80,-8,527,-931,22.3,4.7,-20.0,22.5,4.7,-19.8,5.73,1.70,-9.9,28.6
2015-11-02 01:01:00,0.0,1.99106,0.00062,408.305,0.078,0.1652,0.0016,140.001,45.000,31698.56092,1.99430,409.119,36.373,45.068,45.000,0.00,0.09,-272.75,-272.80,-9,527,-931,22.3,4.7,-20.0,22.5,4.7,-19.6,5.73,2.09,-9.9,28.6
2015-11-02 01:02:00,0.0,1.99080,0.00055,408.222,0.146,0.1655,0.0020,140.000,45.000,31696.62277,1.99406,409.036,36.371,45.068,45.000,0.00,0.09,-272.75,-272.81,-9,527,-931,22.2,4.7,-20.0,22.5,4.7,-19.7,5.73,1.70,-9.9,28.6
2015-11-02 01:03:00,0.0,1.99045,0.00064,408.281,0.151,0.1662,0.0018,139.998,45.000,31697.15657,1.99374,409.107,36.374,45.069,45.000,0.00,0.09,-272.75,-272.80,-9,527,-931,22.3,4.7,-19.8,22.5,4.7,-19.7,5.73,2.09,-9.9,28.6
2015-11-02 01:04:00,0.0,1.98934,0.00121,408.077,0.243,0.1671,0.0019,140.000,45.000,31696.26916,1.99259,408.894,36.373,45.068,45.000,0.00,0.09,-272.73,-272.80,-9,527,-931,22.3,4.7,-19.8,22.5,4.8,-19.6,5.73,1.70,-9.9,28.6
2015-11-02 01:05:00,0.0,1.99139,0.00063,408.406,0.091,0.1674,0.0017,140.000,45.000,31696.40387,1.99466,409.230,36.372,45.068,45.000,0.00,0.09,-272.75,-272.81,-8,527,-932,22.3,4.7,-19.8,22.5,4.8,-19.6,5.73,2.09,-9.9,28.5
2015-11-02 01:06:00,0.0,1.99198,0.00081,408.517,0.118,0.1654,0.0017,139.999,45.000,31695.68814,1.99523,409.333,36.375,45.068,45.000,0.00,0.09,-272.74,-272.81,-10,527,-932,22.2,4.7,-19.9,22.5,4.8,-19.6,5.73,1.69,-9.9,28.5
2015-11-02 01:07:00,0.0,1.99052,0.00106,408.448,0.162,0.1648,0.0019,140.002,45.000,31697.32585,1.99386,409.264,36.380,45.068,45.000,0.00,0.09,-272.74,-272.80,-8,527,-931,22.2,4.7,-20.0,22.5,4.7,-19.7,5.73,2.09,-9.9,28.6
2015-11-02 01:08:00,0.0,1.98976,0.00081,408.521,0.126,0.1642,0.0018,140.001,45.000,31696.89304,1.99299,409.324,36.387,45.068,45.000,0.00,0.09,-272.74,-272.80,-10,526,-931,22.2,4.7,-20.0,22.4,4.7,-19.7,5.73,1.69,-9.9,28.6
2015-11-02 01:09:00,0.0,1.99009,0.00044,408.678,0.054,0.1651,0.0016,139.999,45.000,31694.65929,1.99331,409.492,36.376,45.068,45.000,0.00,0.09,-272.76,-272.81,-8,527,-932,22.2,4.7,-20.0,22.4,4.7,-19.8,5.73,2.09,-9.9,28.5
2015-11-02 01:10:00,0.0,1.99024,0.00091,408.717,0.057,0.1631,0.0025,139.999,45.000,31694.35733,1.99339,409.522,36.385,45.068,45.000,0.00,0.09,-272.75,-272.80,-9,526,-931,22.2,4.7,-20.0,22.4,4.7,-19.8,5.73,1.69,-9.9,28.5
2015-11-02 01:11:00,0.0,1.99099,0.00108,408.717,0.073,0.1632,0.0022,139.997,45.000,31692.72920,1.99414,409.520,36.401,45.068,45.000,0.00,0.09,-272.75,-272.80,-9,527,-932,22.2,4.6,-20.1,22.4,4.7,-19.9,5.73,2.09,-9.9,28.5
2015-11-02 01:12:00,0.0,1.99352,0.00225,408.740,0.256,0.1617,0.0017,140.000,45.000,31693.38196,1.99680,409.545,36.399,45.068,45.000,0.00,0.09,-272.75,-272.81,-8,526,-932,22.2,4.6,-20.2,22.4,4.7,-19.9,5.73,1.70,-9.9,28.5
2015-11-02 01:13:00,0.0,1.99078,0.00107,408.415,0.077,0.1603,0.0018,139.997,45.000,31692.77308,1.99398,409.207,36.415,45.068,45.000,0.00,0.09,-272.75,-272.81,-9,526,-932,22.2,4.6,-20.3,22.4,4.6,-20.0,5.73,2.09,-9.9,28.5
2015-11-02 01:14:00,0.0,1.98904,0.00067,408.432,0.152,0.1612,0.0014,139.998,45.000,31692.13889,1.99220,409.223,36.402,45.068,45.000,0.00,0.09,-272.74,-272.80,-8,526,-932,22.2,4.6,-20.2,22.4,4.6,-20.0,5.73,1.70,-9.9,28.5
2015-11-02 01:15:00,0.0,1.98952,0.00079,408.436,0.134,0.1623,0.0021,140.002,45.000,31695.11615,1.99265,409.242,36.395,45.068,45.000,0.00,0.09,-272.75,-272.81,-10,526,-932,22.2,4.6,-20.2,22.4,4.6,-20.0,5.73,2.09,-9.9,28.5
2015-11-02 01:16:00,0.0,1.98918,0.00075,408.229,0.057,0.1648,0.0012,139.999,45.000,31692.80303,1.99251,409.042,36.417,45.068,45.000,0.00,0.09,-272.74,-272.81,-8,526,-932,22.2,4.7,-20.1,22.4,4.7,-19.8,5.73,1.69,-9.9,28.5
2015-11-02 01:17:00,0.0,1.98784,0.00054,408.180,0.050,0.1647,0.0013,140.002,45.000,31692.60165,1.99107,408.990,36.419,45.068,45.000,0.00,0.09,-272.74,-272.80,-9,526,-932,22.2,4.7,-19.9,22.4,4.7,-19.7,5.73,2.09,-9.9,28.5
2015-11-02 01:18:00,0.0,1.98765,0.00057,408.054,0.076,0.1662,0.0016,140.000,45.000,31692.84706,1.99093,408.874,36.386,45.068,45.000,0.00,0.09,-272.74,-272.80,-8,526,-932,22.2,4.8,-19.8,22.4,4.8,-19.7,5.73,1.69,-9.9,28.5
2015-11-02 01:19:00,0.0,1.98876,0.00133,408.057,0.095,0.1656,0.0019,140.000,45.000,31691.60836,1.99193,408.873,36.395,45.069,45.000,0.00,0.09,-272.75,-272.81,-9,526,-932,22.2,4.7,-20.0,22.4,4.8,-19.6,5.73,2.09,-9.9,28.5
2015-11-02 01:20:00,0.0,1.98831,0.00101,407.973,0.118,0.1628,0.0012,139.997,45.000,31690.95778,1.99152,408.775,36.383,45.068,45.000,0.00,0.09,-272.74,-272.80,-9,526,-932,22.2,4.7,-20.1,22.4,4.7,-19.7,5.73,1.70,-9.9,28.5
2015-11-02 01:21:00,0.0,1.99162,0.00176,408.211,0.136,0.1611,0.0018,139.999,45.000,31692.13710,1.99469,409.001,36.388,45.069,45.000,0.00,0.09,-272.75,-272.80,-8,526,-932,22.2,4.6,-20.2,22.4,4.7,-19.9,5.73,2.09,-9.9,28.5
2015-11-02 01:22:00,0.0,1.99279,0.00159,408.273,0.179,0.1581,0.0023,140.000,45.000,31693.54382,1.99600,409.059,36.379,45.069,45.000,0.00,0.09,-272.75,-272.81,-9,526,-932,22.2,4.5,-20.4,22.4,4.6,-20.1,5.73,1.70,-9.9,28.5
2015-11-02 01:23:00,0.0,1.99024,0.00057,407.968,0.072,0.1563,0.0021,139.998,45.000,31693.45613,1.99326,408.735,36.379,45.069,45.000,0.00,0.09,-272.75,-272.81,-8,526,-932,22.2,4.4,-20.6,22.4,4.5,-20.2,5.73,2.09,-9.9,28.5
2015-11-02 01:24:00,0.0,1.98940,0.00223,407.971,0.145,0.1526,0.0019,140.000,45.000,31692.23744,1.99256,408.727,36.376,45.069,45.000,0.00,0.09,-272.74,-272.80,-10,526,-932,22.2,4.4,-20.7,22.4,4.5,-20.4,5.73,1.70,-9.9,28.5
2015-11-02 01:25:00,0.0,1.98696,0.00192,407.887,0.189,0.1503,0.0016,139.998,45.000,31690.05472,1.98976,408.620,36.374,45.069,45.000,0.00,0.09,-272.75,-272.81,-8,526,-932,22.2,4.4,-20.9,22.4,4.4,-20.6,5.73,2.09,-9.9,28.4
2015-11-02 01:26:00,0.0,1.98708,0.00066,407.874,0.043,0.1517,0.0013,139.998,45.000,31688.18243,1.99015,408.623,36.369,45.068,45.000,0.00,0.09,-272.74,-272.81,-9,526,-932,22.1,4.4,-20.8,22.4,4.4,-20.5,5.73,1.70,-9.9,28.5
2015-11-02 01:27:00,0.0,1.98777,0.00068,407.978,0.056,0.1517,0.0015,139.997,45.000,31686.83647,1.99071,408.722,36.369,45.069,45.000,0.00,0.09,-272.75,-272.80,-8,526,-932,22.1,4.4,-20.8,22.3,4.4,-20.5,5.73,2.09,-9.9,28.4
2015-11-02 01:28:00,0.0,1.98781,0.00052,408.030,0.040,0.1512,0.0018,139.999,45.000,31688.63278,1.99078,408.775,36.373,45.069,45.000,0.00,0.09,-272.74,-272.81,-8,526,-932,22.1,4.3,-20.9,22.3,4.4,-20.6,5.73,1.70,-9.9,28.5
2015-11-02 01:29:00,0.0,1.98924,0.00090,408.156,0.086,0.1518,0.0015,139.999,45.000,31689.47364,1.99215,408.899,36.373,45.069,45.000,0.00,0.09,-272.75,-272.80,-9,526,-932,22.2,4.4,-20.8,22.3,4.4,-20.5,5.73,2.09,-9.9,28.5
2015-11-02 01:30:00,0.0,1.99117,0.00067,408.304,0.069,0.1535,0.0018,140.000,45.000,31689.49359,1.99416,409.058,36.372,45.068,45.000,0.00,0.09,-272.75,-272.80,-8,526,-932,22.1,4.4,-20.7,22.3,4.5,-20.5,5.73,1.70,-9.9,28.4
2015-11-02 01:31:00,0.0,1.99355,0.00107,408.542,0.111,0.1547,0.0020,139.999,45.000,31690.17495,1.99652,409.300,36.361,45.068,45.000,0.00,0.09,-272.74,-272.80,-10,526,-932,22.1,4.4,-20.7,22.3,4.5,-20.4,5.73,2.09,-9.9,28.5
2015-11-02 01:32:00,0.0,1.99141,0.00112,408.387,0.143,0.1568,0.0021,139.999,45.000,31689.30843,1.99464,409.168,36.365,45.068,45.000,0.00,0.09,-272.75,-272.81,-8,526,-932,22.1,4.5,-20.5,22.3,4.5,-20.3,5.73,1.70,-9.9,28.5
2015-11-02 01:33:00,0.0,1.98862,0.00088,408.042,0.049,0.1615,0.0019,140.000,45.000,31687.96376,1.99177,408.835,36.372,45.068,45.000,0.00,0.09,-272.75,-272.81,-10,526,-932,22.1,4.6,-20.3,22.3,4.6,-20.1,5.73,2.09,-9.9,28.4
2015-11-02 01:34:00,0.0,1.99101,0.00057,408.171,0.050,0.1654,0.0021,140.001,45.000,31688.42613,1.99424,408.984,36.375,45.068,45.000,0.00,0.09,-272.74,-272.80,-8,526,-931,22.1,4.7,-20.0,22.3,4.7,-19.8,5.73,1.70,-9.9,28.4
2015-11-02 01:35:00,0.0,1.99001,0.00096,408.009,0.066,0.1682,0.0020,140.001,45.000,31688.47805,1.99337,408.841,36.375,45.068,45.000,0.00,0.09,-272.75,-272.81,-9,526,-932,22.2,4.8,-19.7,22.3,4.8,-19.5,5.73,2.09,-9.9,28.4
2015-11-02 01:36:00,0.0,1.99134,0.00097,408.052,0.059,0.1714,0.0023,140.000,45.000,31688.28582,1.99459,408.892,36.375,45.068,45.000,0.00,0.09,-272.74,-272.82,-9,526,-932,22.1,4.9,-19.6,22.3,4.9,-19.4,5.73,1.70,-9.9,28.4
2015-11-02 01:37:00,0.0,1.99292,0.00057,408.133,0.037,0.1756,0.0020,140.002,45.000,31689.15409,1.99636,408.996,36.374,45.068,45.000,0.00,0.09,-272.75,-272.80,-8,526,-932,22.1,4.9,-19.4,22.3,5.0,-19.2,5.73,2.09,-9.9,28.4
2015-11-02 01:38:00,0.0,1.99220,0.00063,408.383,0.117,0.1700,0.0036,140.000,45.000,31686.66451,1.99558,409.217,36.372,45.068,45.000,0.00,0.09,-272.74,-272.80,-9,526,-932,22.0,4.8,-19.7,22.3,5.0,-19.2,5.73,1.70,-9.9,28.4
2015-11-02 01:39:00,0.0,1.99238,0.00054,408.438,0.054,0.1608,0.0030,140.001,45.000,31688.89609,1.99548,409.232,36.372,45.069,45.000,0.00,0.09,-272.76,-272.80,-8,526,-932,22.0,4.6,-20.4,22.3,4.7,-19.8,5.73,2.09,-9.9,28.4
2015-11-02 01:40:00,0.0,1.99255,0.00076,408.437,0.029,0.1575,0.0017,139.998,45.000,31687.32660,1.99572,409.213,36.365,45.068,45.000,0.00,0.09,-272.74,-272.80,-9,526,-932,22.0,4.5,-20.5,22.3,4.6,-20.0,5.73,1.70,-9.9,28.4
2015-11-02 01:41:00,0.0,1.99124,0.00063,408.337,0.081,0.1575,0.0014,139.998,45.000,31687.55268,1.99432,409.116,36.364,45.068,45.000,0.00,0.09,-272.75,-272.80,-8,526,-932,22.1,4.5,-20.4,22.3,4.6,-20.2,5.73,2.10,-9.9,28.4
2015-11-02 01:42:00,0.0,1.99110,0.00056,408.293,0.110,0.1575,0.0021,140.001,45.000,31687.35698,1.99418,409.066,36.375,45.068,45.000,0.00,0.09,-272.74,-272.81,-9,526,-932,22.0,4.5,-20.5,22.3,4.5,-20.3,5.73,1.70,-9.9,28.4
2015-11-02 01:43:00,0.0,1.99119,0.00040,408.461,0.070,0.1578,0.0018,140.000,45.000,31687.78085,1.99434,409.238,36.375,45.068,45.000,0.00,0.09,-272.75,-272.81,-8,526,-932,22.1,4.5,-20.4,22.3,4.6,-20.2,5.73,2.09,-9.9,28.4
2015-11-02 01:44:00,0.0,1.99112,0.00044,408.408,0.074,0.1606,0.0015,139.999,45.000,31689.02562,1.99427,409.203,36.378,45.068,45.000,0.00,0.09,-272.73,-272.81,-9,525,-932,22.1,4.6,-20.3,22.3,4.6,-20.0,5.73,1.70,-9.9,28.4
2015-11-02 01:45:00,0.0,1.99041,0.00046,408.288,0.071,0.1618,0.0014,140.000,45.000,31688.69138,1.99362,409.086,36.378,45.068,45.000,0.00,0.09,-272.75,-272.81,-9,526,-932,22.1,4.6,-20.2,22.2,4.7,-20.0,5.73,2.09,-9.9,28.4